Location: Recife
(8.0585°S, 34.8848°W)
Time: 01:56:17
(UTC-03:00)

Tiros 1 - Pass Details

Date: 19 April 2026
Orbit: 618 x 648 km, 48.4° (Epoch: 15 May)

Event Time Altitude Azimuth Distance (km) Brightness Sun altitude
Rises 19:06:14 0° 289° (WNW) 2,946 11.8 -27.8°
Reaches altitude 10° 19:09:14 10° 269° (W) 2,042 10.6 -28.6°
Maximum altitude 19:12:23 18° 227° (SW) 1,597 9.5 -29.3°
Enters shadow 19:13:42 16° 206° (SSW) 1,684 9.4 -29.7°
